Regional Weather Roundup
Issued by NWS Sioux Falls, SD

Home | Current Version | Previous Version | Text Only | Print | Product List | Glossary Off
Versions: 1 2 3 4 5 6 7 8 9 10 11 12 13 14 15 16 17 18 19 20 21 22 23 24 25 26 27 28 29 30 31 32 33 34 35 36 37 38 39 40 41 42 43 44 45 46 47 48 49 50

000
ASUS43 KFSD 110702
RWRFSD

WEATHER ROUNDUP FOR SE SOUTH DAKOTA/SW MINNESOTA/NW IOWA
NATIONAL WEATHER SERVICE SIOUX FALLS SD
100 AM CST SUN DEC 11 2016

NOTE: "FAIR" INDICATES FEW OR NO CLOUDS BELOW 12,000 FEET WITH NO
SIGNIFICANT WEATHER AND OR OBSTRUCTIONS TO VISIBILITY.


SDZ038>040-050-052>070-110800-
SOUTHEAST SOUTH DAKOTA

CITY           SKY/WX    TMP DP  RH WIND       PRES   REMARKS
CHAMBERLAIN    CLOUDY    24  21  90 E6        29.79S WCI  16
HURON          LGT SNOW  17  15  92 E10       29.85F FOG     WCI   5
MADISON        FLURRIES  16  16 100 SE14      29.84F WCI   1
MITCHELL       CLOUDY    23  20  88 SE13      29.82F WCI  11
SIOUX FALLS    CLOUDY    21  19  92 SE15      29.84F WCI   8
WINNER         CLOUDY    24  19  81 N6        29.76R WCI  17
YANKTON        CLOUDY    25  19  80 E10       29.79F WCI  15
$$

MNZ071-072-080-081-089-090-097-098-110800-
SOUTHWEST MINNESOTA

CITY           SKY/WX    TMP DP  RH WIND       PRES   REMARKS
FAIRMONT       LGT SNOW  19  17  92 E15       29.96F FOG     WCI   5
JACKSON        LGT SNOW  19  18  93 E16       29.93F WCI   5
LUVERNE        CLOUDY    21  18  86 SE16G24   29.87F WCI   7
MARSHALL       LGT SNOW  13  10  88 E14G21    29.95F FOG     WCI  -2
MONTEVIDEO     LGT SNOW  12  10  92 SE16      30.00F WCI  -4
PIPESTONE      LGT SNOW  18  16  93 SE13G18   29.85F WCI   4
REDWOOD FALLS  LGT SNOW  14   9  80 E13G20    29.99F VSB 3/4 WCI   0
TRACY          LGT SNOW  16  14  92 E10       29.94F WCI   3
WINDOM         LGT SNOW  18  16  93 MISG      29.93F
WORTHINGTON    FLURRIES  19  16  88 E15       29.89F WCI   5
$$

IAZ001>003-012>014-020>022-031-032-NEZ013-014-SDZ071-110800-
NORTHWEST IOWA

CITY           SKY/WX    TMP DP  RH WIND       PRES   REMARKS
CHEROKEE       CLOUDY    23  21  93 E8        29.89F WCI  14
DENISON        CLOUDY    27  21  80 SE10      29.84F WCI  17
ESTHERVILLE    LGT SNOW  19  18  95 SE16      29.94F FOG     WCI   4
LE MARS        CLOUDY    25  21  86 E13G20    29.87F WCI  13
ORANGE CITY    CLOUDY    21  19  93 E9        29.87S WCI  11
SHELDON          N/A     21  21 100 E16       29.87F WCI   7
SIOUX CITY     CLOUDY    29  21  72 E10       29.85F WCI  20
SPENCER        LGT SNOW  21  19  92 E8        29.91F FOG     WCI  11
STORM LAKE     CLOUDY    21  19  93 E15       29.89F WCI   8
$$

ABBREVIATIONS USED IN REMARKS
   TC - TEMPERATURE IN CELSIUS
  WCI - WIND CHILL INDEX
   HX - HEAT INDEX
  VSB - VISIBILITY




USA.gov is the U.S. government's official web portal to all federal, state and local government web resources and services.